Vorticity
11 11 12 12 14 15 13 11 13 11 7 10 -1 -1 1 5 2 4 2 3 -1 7 6 7 7 6 5 4 6 3 8 7 4 4 2 3 3 3 2 2 3 2 3 4 4 8 5 1 1
9 9 10 9 8 13 17 15 12 14 13 7 7 6 3 3 3 1 4 3 0 5 5 7 7 9 6 6 3 4 6 7 6 4 3 2 3 3 2 2 3 3 4 4 4 7 0 1 1
7 9 8 8 7 6 9 9 12 13 11 12 12 8 4 4 6 2 1 3 4 2 4 4 6 8 7 5 6 4 2 7 6 5 3 3 3 4 1 2 3 3 4 5 4 5 2 1 2
7 8 8 8 10 7 5 5 7 10 10 11 15 16 15 9 6 6 8 4 -1 4 3 5 3 5 9 4 7 5 3 4 6 6 5 3 2 1 -1 4 3 3 4 4 5 6 4 1 1
8 8 7 4 4 5 8 6 7 7 4 9 6 2 6 15 22 13 3 9 7 2 3 4 4 4 4 7 7 8 4 3 5 6 6 4 4 3 4 3 3 3 3 5 5 5 5 3 2
9 10 8 6 5 4 3 8 9 4 4 1 3 5 2 4 6 11 17 3 3 7 5 2 3 3 3 4 7 7 8 4 3 7 5 7 4 3 3 2 2 2 3 4 5 4 3 3 3
6 7 8 11 13 13 10 6 7 10 4 -0 2 3 4 5 12 7 10 18 7 4 3 5 6 4 4 2 3 6 7 8 5 8 2 6 6 3 3 2 2 2 2 3 3 3 3 3 3
6 5 6 7 8 9 10 11 12 11 8 6 4 4 4 7 11 9 4 6 14 16 1 3 3 5 3 6 3 5 5 9 7 4 9 3 7 8 3 3 2 2 2 2 2 2 2 2 2
11 11 7 6 6 8 8 7 8 9 10 13 13 13 9 9 8 7 7 5 1 5 17 9 2 5 3 4 4 3 6 1 8 8 5 6 4 5 7 4 4 2 2 2 2 3 2 3 3
12 10 11 14 14 11 8 8 6 7 7 5 6 7 8 10 10 5 4 8 8 5 5 11 13 3 5 4 3 4 2 6 3 7 8 5 5 5 5 6 4 4 3 2 2 2 2 3 3
11 11 14 11 9 8 9 9 11 11 11 10 9 10 9 7 9 11 9 7 7 6 7 6 8 15 3 3 3 1 4 -3 6 3 7 8 7 5 5 6 5 3 4 4 3 1 2 2 2
8 9 6 6 6 8 10 12 12 12 14 15 16 13 14 15 11 10 10 9 11 2 6 9 6 9 14 4 2 3 4 8 -8 1 3 5 6 7 4 6 5 5 3 4 5 4 2 2 2
5 6 9 10 6 5 4 4 6 7 8 8 11 12 13 14 15 16 16 17 16 22 6 7 1 10 10 16 5 -0 -1 2 13 -9 -13 28 4 8 9 5 6 4 6 4 3 4 4 4 2
12 10 9 7 7 11 10 8 6 5 4 5 4 5 8 11 11 10 11 12 15 22 27 12 3 3 13 5 14 11 6 -5 4 11 -30 8 0 1 5 9 8 3 4 5 5 3 3 5 5
6 9 9 11 10 10 6 8 9 6 8 6 5 4 3 3 3 7 10 11 9 9 12 22 27 18 11 14 13 3 19 6 11 2 8 20 34 19 2 8 7 9 5 4 4 6 5 3 2
10 7 10 8 7 8 9 9 8 9 9 7 8 8 7 6 6 6 5 3 4 7 8 10 11 15 24 16 8 21 14 14 1 2 6 14 5 11 4 33 -5 12 0 6 8 6 5 5 5
6 11 8 9 7 8 8 5 6 9 7 8 9 8 8 7 7 7 8 9 10 6 3 4 6 9 8 11 20 21 15 17 13 9 9 6 8 5 14 -10 21 -2 11 -8 -5 8 7 9 5
7 10 10 10 10 7 9 6 5 7 9 7 6 6 5 3 3 4 6 5 4 5 8 11 8 3 3 5 5 8 14 17 20 22 20 20 19 10 16 12 -6 -7 -6 63 -18 13 2 2 6
7 6 7 7 9 16 9 11 9 6 7 4 5 4 5 5 5 6 8 12 11 9 7 5 7 8 9 10 7 5 4 3 5 7 11 9 9 17 20 11 4 -8 41 -15 11 42 -14 20 -15
7 7 5 8 7 8 12 13 15 13 13 11 6 8 4 8 6 4 10 10 13 11 13 13 9 9 8 8 9 9 8 7 7 8 7 5 3 6 8 13 18 10 3 -17 30 -0 -7 38 -20
7 7 6 8 6 9 10 12 11 13 12 13 13 10 10 9 7 6 10 8 11 11 9 11 12 11 11 8 7 7 8 7 10 11 11 11 9 5 6 6 8 15 22 5 -18 8 -2 -18 38
9 7 6 7 6 8 8 8 11 11 13 14 13 12 11 10 9 6 7 6 5 10 9 9 10 9 8 8 6 7 13 15 8 8 10 10 14 15 14 10 5 7 8 17 14 -1 -12 37 -27
7 9 7 6 8 6 5 14 10 13 11 11 10 10 11 10 10 8 7 8 7 14 12 12 12 10 13 12 14 15 10 -1 3 8 8 10 11 13 18 15 16 9 4 4 19 18 4 -34 28
9 9 6 6 9 6 7 6 8 10 10 16 13 11 11 12 7 8 7 5 9 14 13 15 15 12 10 18 15 12 10 8 9 6 8 8 7 9 9 18 27 21 14 7 5 11 18 0 1
7 8 7 6 7 9 9 8 9 8 13 11 11 7 6 6 11 10 8 11 14 10 11 12 13 15 7 15 9 5 4 4 6 9 6 8 11 8 5 7 13 27 31 25 15 6 -1 18 21
8 8 9 7 5 9 8 9 6 16 7 7 14 15 18 16 13 13 18 15 8 5 12 12 15 14 9 13 7 8 8 3 4 9 9 10 7 7 10 7 7 9 13 24 37 21 5 9 16
5 9 7 7 6 8 8 10 12 17 7 13 9 13 9 3 8 8 11 6 6 6 5 16 9 21 14 15 8 5 5 8 5 5 13 13 8 11 11 9 12 12 11 9 11 24 35 11 9
9 9 6 7 7 6 8 8 6 8 13 11 12 10 13 16 10 13 16 20 12 9 10 10 13 7 16 13 8 5 9 6 15 18 9 13 15 15 13 14 7 13 11 14 11 17 46 34 18
10 6 8 9 8 4 7 8 17 16 4 10 19 17 11 10 11 14 15 15 7 9 8 5 12 7 10 13 11 7 10 15 12 14 10 16 16 19 14 13 9 15 13 14 11 -1 10 -9 20
8 9 5 8 10 6 10 15 15 6 18 14 11 15 16 14 14 15 12 23 10 9 -5 12 13 10 13 17 13 7 16 14 16 18 18 22 17 12 9 11 14 13 15 17 17 3 2 9 20
Height
5794 5796 5797 5799 5803 5803 5805 5808 5810 5813 5815 5817 5819 5820 5823 5825 5827 5833 5832 5833 5835 5836 5836 5837 5838 5841 5843 5845 5846 5848 5850 5851 5853 5856 5857 5858 5860 5861 5863 5864 5865 5866 5867 5868 5868 5869 5870 5870 5871
5792 5793 5795 5797 5798 5799 5801 5803 5805 5808 5810 5812 5815 5816 5817 5821 5824 5826 5829 5830 5832 5833 5834 5835 5836 5838 5839 5842 5844 5845 5847 5849 5852 5854 5855 5857 5858 5859 5860 5862 5863 5865 5866 5866 5867 5869 5869 5870 5871
5791 5791 5793 5794 5795 5797 5800 5801 5802 5804 5806 5808 5811 5812 5813 5815 5819 5821 5825 5827 5828 5830 5831 5832 5833 5835 5837 5838 5841 5843 5844 5847 5849 5852 5853 5855 5856 5857 5859 5860 5862 5863 5864 5865 5866 5867 5868 5869 5870
5788 5789 5791 5792 5794 5796 5797 5798 5799 5801 5803 5805 5807 5808 5810 5810 5813 5817 5820 5822 5824 5826 5827 5828 5829 5831 5833 5835 5837 5840 5841 5844 5846 5848 5850 5852 5853 5854 5857 5859 5860 5861 5862 5863 5865 5866 5867 5868 5869
5787 5788 5789 5790 5792 5793 5794 5795 5796 5798 5800 5801 5803 5804 5805 5806 5808 5811 5814 5816 5819 5821 5823 5824 5825 5826 5828 5830 5832 5835 5838 5839 5842 5844 5845 5848 5850 5851 5854 5856 5858 5859 5860 5861 5862 5864 5865 5866 5867
5786 5787 5787 5788 5789 5790 5791 5791 5792 5794 5796 5798 5799 5801 5802 5802 5804 5805 5808 5810 5813 5815 5817 5819 5821 5822 5823 5826 5827 5829 5832 5835 5837 5839 5842 5844 5846 5848 5851 5853 5855 5857 5858 5859 5861 5861 5863 5864 5865
5785 5785 5786 5786 5786 5787 5788 5788 5789 5790 5792 5794 5795 5796 5798 5798 5799 5801 5802 5804 5806 5810 5811 5814 5816 5817 5819 5821 5824 5824 5827 5829 5833 5835 5837 5839 5840 5843 5846 5848 5851 5853 5855 5857 5858 5859 5860 5861 5862
5783 5784 5784 5784 5785 5785 5785 5785 5786 5787 5788 5789 5790 5791 5792 5793 5794 5796 5797 5798 5799 5803 5806 5807 5811 5812 5814 5816 5819 5820 5821 5824 5827 5830 5833 5835 5837 5839 5841 5843 5846 5848 5851 5853 5855 5856 5857 5859 5859
5781 5782 5782 5782 5782 5783 5783 5783 5783 5783 5784 5785 5785 5786 5785 5787 5789 5791 5792 5793 5794 5796 5799 5802 5804 5806 5809 5811 5812 5814 5816 5818 5821 5823 5826 5829 5831 5833 5835 5838 5840 5843 5845 5848 5850 5852 5853 5854 5856
5779 5779 5779 5779 5779 5780 5780 5780 5780 5780 5781 5781 5781 5781 5780 5780 5782 5784 5786 5787 5789 5790 5792 5795 5796 5800 5802 5805 5805 5808 5810 5812 5815 5817 5820 5823 5825 5827 5829 5831 5834 5836 5839 5842 5845 5846 5848 5849 5850
5779 5777 5777 5777 5777 5777 5776 5776 5776 5776 5776 5776 5776 5776 5776 5776 5776 5776 5778 5780 5782 5783 5784 5786 5789 5791 5794 5796 5798 5801 5803 5805 5808 5812 5814 5816 5818 5820 5823 5825 5827 5830 5833 5835 5838 5840 5841 5843 5845
5779 5777 5776 5775 5775 5775 5774 5773 5772 5772 5772 5771 5771 5771 5770 5770 5771 5770 5771 5773 5774 5776 5777 5779 5780 5782 5785 5787 5790 5792 5793 5797 5800 5805 5808 5810 5811 5812 5815 5818 5820 5823 5825 5828 5831 5833 5836 5837 5839
5778 5777 5776 5774 5772 5771 5771 5771 5770 5768 5767 5767 5767 5766 5766 5766 5766 5766 5765 5765 5767 5769 5770 5772 5773 5775 5776 5778 5781 5784 5786 5788 5792 5792 5796 5799 5802 5805 5807 5809 5812 5816 5818 5820 5822 5825 5828 5830 5833
5775 5775 5774 5773 5772 5770 5768 5767 5767 5766 5765 5763 5763 5762 5761 5761 5761 5761 5761 5760 5760 5760 5762 5763 5765 5767 5768 5770 5772 5775 5779 5781 5781 5782 5777 5788 5794 5797 5799 5800 5802 5806 5809 5811 5814 5817 5820 5822 5825
5774 5773 5771 5770 5769 5767 5766 5765 5762 5761 5760 5759 5758 5757 5757 5757 5757 5756 5756 5755 5755 5754 5754 5755 5756 5757 5759 5760 5763 5766 5769 5772 5773 5774 5775 5779 5781 5787 5788 5792 5794 5796 5798 5802 5805 5808 5812 5813 5815
5772 5771 5769 5767 5765 5765 5763 5761 5761 5759 5756 5754 5754 5752 5751 5751 5750 5750 5750 5749 5749 5749 5748 5748 5749 5749 5750 5751 5753 5755 5758 5762 5764 5763 5765 5768 5770 5772 5777 5780 5785 5786 5787 5792 5796 5799 5802 5806 5807
5770 5768 5766 5764 5760 5760 5759 5754 5754 5755 5752 5750 5749 5748 5746 5745 5744 5743 5742 5742 5742 5742 5742 5742 5742 5742 5742 5743 5744 5746 5748 5750 5753 5755 5755 5756 5759 5765 5768 5773 5774 5772 5775 5781 5786 5789 5791 5796 5798
5768 5766 5763 5759 5759 5755 5753 5752 5747 5747 5748 5746 5744 5742 5741 5739 5737 5736 5736 5734 5734 5733 5734 5734 5734 5734 5734 5735 5736 5737 5739 5740 5741 5744 5745 5746 5748 5752 5757 5761 5761 5762 5768 5769 5772 5778 5780 5783 5787
5765 5762 5759 5757 5754 5752 5747 5745 5743 5740 5739 5739 5737 5736 5734 5731 5730 5728 5726 5725 5724 5724 5724 5724 5724 5725 5725 5726 5727 5728 5729 5731 5733 5734 5736 5737 5739 5741 5744 5748 5751 5754 5754 5755 5760 5760 5769 5770 5775
5761 5758 5755 5753 5750 5747 5744 5741 5738 5735 5733 5730 5728 5726 5724 5723 5722 5720 5718 5716 5714 5714 5714 5714 5714 5715 5716 5717 5717 5718 5719 5721 5722 5724 5725 5727 5729 5731 5733 5735 5736 5741 5746 5747 5748 5749 5757 5759 5761
5755 5753 5751 5749 5745 5742 5738 5735 5732 5728 5724 5721 5719 5717 5715 5714 5713 5711 5709 5707 5705 5704 5703 5704 5704 5704 5705 5706 5707 5707 5708 5710 5711 5712 5714 5716 5718 5719 5720 5723 5726 5728 5732 5733 5737 5738 5745 5748 5747
5751 5749 5746 5742 5739 5735 5732 5729 5724 5720 5717 5713 5711 5709 5706 5705 5703 5701 5700 5698 5697 5695 5693 5694 5694 5694 5694 5695 5696 5697 5698 5698 5699 5701 5701 5703 5705 5706 5707 5708 5711 5715 5717 5721 5722 5726 5729 5736 5734
5748 5743 5740 5737 5733 5729 5725 5722 5718 5713 5709 5706 5703 5700 5697 5695 5693 5691 5689 5688 5687 5686 5684 5683 5684 5685 5684 5684 5686 5687 5688 5689 5689 5690 5690 5689 5691 5692 5694 5695 5696 5699 5705 5707 5710 5714 5717 5722 5723
5741 5737 5733 5729 5726 5724 5718 5714 5709 5707 5703 5697 5693 5690 5687 5684 5682 5680 5679 5678 5678 5676 5675 5673 5672 5673 5674 5674 5675 5677 5678 5679 5679 5679 5679 5678 5678 5678 5679 5680 5681 5683 5687 5692 5695 5699 5703 5707 5713
5733 5730 5727 5723 5718 5714 5710 5707 5701 5698 5695 5689 5683 5680 5677 5675 5673 5671 5671 5670 5668 5666 5664 5663 5663 5662 5662 5663 5665 5666 5665 5666 5667 5667 5667 5667 5667 5666 5666 5667 5668 5670 5671 5673 5677 5683 5689 5690 5696
5728 5724 5719 5714 5712 5709 5702 5698 5694 5689 5686 5680 5674 5671 5669 5667 5665 5663 5661 5660 5658 5657 5655 5653 5652 5651 5651 5652 5653 5654 5655 5655 5655 5654 5654 5655 5656 5655 5654 5654 5655 5657 5659 5659 5662 5665 5669 5676 5683
5722 5718 5713 5707 5704 5701 5698 5690 5683 5680 5677 5671 5666 5662 5659 5657 5655 5653 5652 5650 5648 5648 5646 5644 5642 5641 5641 5641 5642 5643 5643 5644 5643 5642 5641 5641 5641 5641 5642 5643 5643 5645 5647 5649 5650 5653 5658 5661 5667
5714 5710 5704 5699 5694 5693 5690 5682 5675 5670 5667 5663 5657 5655 5651 5647 5644 5641 5640 5639 5638 5638 5637 5635 5633 5632 5631 5631 5631 5632 5632 5631 5630 5630 5629 5629 5629 5629 5630 5631 5633 5633 5635 5637 5640 5642 5645 5647 5654
5707 5701 5696 5691 5687 5682 5680 5677 5665 5661 5658 5654 5650 5645 5640 5636 5633 5631 5629 5629 5629 5628 5627 5626 5624 5622 5621 5621 5621 5621 5620 5619 5617 5617 5617 5617 5617 5617 5618 5619 5620 5621 5623 5626 5630 5633 5637 5638 5643
5699 5693 5689 5684 5681 5675 5670 5671 5661 5653 5648 5644 5639 5634 5630 5626 5623 5621 5620 5618 5618 5619 5618 5616 5615 5613 5612 5611 5611 5611 5608 5608 5607 5606 5606 5606 5606 5606 5605 5607 5608 5610 5611 5614 5618 5622 5626 5627 5633